Springfield, CO

3:57 AM MDT on September 23, 2017 (GMT -0600)
Springfield

Weather History for KSPD - November, 2012

Change the Weather History Date:

Saturday, November 3, 2012

  Actual Average Record
Temperature  
Mean Temperature 47 °F -  
Max Temperature 61 °F 63 °F 81 °F (2013)
Min Temperature 32 °F 31 °F 1 °F (2013)
Degree Days  
Heating Degree Days 18 18  
Month to date heating degree days 35 53  
Since 1 July heating degree days 482 498  
Cooling Degree Days 0 0  
Month to date cooling degree days 0 0  
Year to date cooling degree days 1422 1028  
Moisture  
Dew Point 29 °F    
Average Humidity 55    
Maximum Humidity 82    
Minimum Humidity 28    
Precipitation  
Precipitation 0.00 in 0.02 in 0.03 in (2003)
Month to date precipitation 0.00  
Year to date precipitation 8.07  
Sea Level Pressure  
Sea Level Pressure 30.14 in    
Wind  
Wind Speed 8 mph (SW)    
Max Wind Speed 20 mph    
Max Gust Speed 22 mph    
T = Trace of Precipitation, MM = Missing Value Source: NWS Daily Summary

Daily Weather History Graph

Daily Weather History Graph

Search for Another Location

Airport or City:

Trip Planner

Search our weather history database for the weather conditions in past years. The results will help you decide how hot, cold, wet, or windy it might be!

Date:

Astronomy

Nov. 03, 2012 Rise Set
Actual Time 7:17 AM MDT 5:49 PM MDT
Civil Twilight 6:50 AM MDT 6:17 PM MDT
Nautical Twilight 6:19 AM MDT 6:47 PM MDT
Astronomical Twilight 5:49 AM MDT 7:18 PM MDT
Moon 9:35 PM MDT (11/3) 11:21 AM MDT (11/3)
Length of Visible Light 11h 26m
Length of Day
10h 32m
Waning Gibbous, 80% of the Moon is Illuminated
Nov 3
Waning Gibbous
Nov 6
Last Quarter
Nov 13
New
Nov 20
First Quarter
Nov 28
Full

Hourly Weather History & Observations

Time (MDT) Temp. Windchill Dew Point Humidity Pressure Visibility Wind Dir Wind Speed Gust Speed Precip Events Conditions
12:56 AM 37.9 °F 33.5 °F 30.9 °F 76% 30.07 in - North 5.8 mph - N/A   Unknown
1:56 AM 37.9 °F 32.1 °F 30.9 °F 76% 30.07 in - NNW 8.1 mph - N/A   Unknown
2:56 AM 36.0 °F 29.6 °F 30.0 °F 79% 30.10 in - NW 8.1 mph - N/A   Unknown
3:56 AM 37.0 °F 31.6 °F 30.0 °F 76% 30.11 in - NW 6.9 mph - N/A   Unknown
4:56 AM 33.1 °F 26.9 °F 28.9 °F 85% 30.14 in - NNW 6.9 mph - N/A   Unknown
5:56 AM 34.0 °F 28.0 °F 28.9 °F 82% 30.17 in - NNW 6.9 mph - N/A   Unknown
6:56 AM 33.1 °F 26.1 °F 28.9 °F 85% 30.19 in - NW 8.1 mph - N/A   Unknown
7:56 AM 33.1 °F 27.7 °F 28.9 °F 85% 30.21 in - NW 5.8 mph - N/A   Unknown
8:56 AM 45.0 °F - 34.0 °F 65% 30.19 in - Calm Calm - N/A   Unknown
9:56 AM 50.0 °F - 34.0 °F 54% 30.17 in - South 3.5 mph - N/A   Unknown
10:56 AM 54.0 °F - 30.9 °F 41% 30.17 in - South 6.9 mph - N/A   Unknown
11:56 AM 57.9 °F - 28.0 °F 32% 30.15 in - SSE 6.9 mph - N/A   Unknown
12:56 PM 59.0 °F - 27.0 °F 29% 30.14 in - South 10.4 mph - N/A   Unknown
1:56 PM 59.0 °F - 28.9 °F 32% 30.12 in - South 12.7 mph - N/A   Unknown
2:56 PM 59.0 °F - 28.0 °F 31% 30.10 in - South 11.5 mph - N/A   Unknown
3:56 PM 59.0 °F - 26.1 °F 28% 30.10 in - South 17.3 mph - N/A   Unknown
4:56 PM 57.0 °F - 27.0 °F 32% 30.11 in - South 16.1 mph - N/A   Unknown
5:56 PM 51.1 °F - 27.0 °F 39% 30.13 in - South 10.4 mph - N/A   Unknown
6:56 PM 46.9 °F - 26.1 °F 44% 30.16 in - South 9.2 mph - N/A   Unknown
7:56 PM 45.0 °F 40.1 °F 27.0 °F 49% 30.17 in - South 9.2 mph - N/A   Unknown
8:56 PM 39.9 °F 35.1 °F 27.0 °F 60% 30.15 in - SSW 6.9 mph - N/A   Unknown
9:56 PM 37.0 °F 32.4 °F 27.0 °F 67% 30.15 in - SW 5.8 mph - N/A   Unknown
10:56 PM 37.9 °F 33.5 °F 28.0 °F 68% 30.14 in - WSW 5.8 mph - N/A   Unknown
11:56 PM 39.0 °F 34.8 °F 28.0 °F 65% 30.12 in - WSW 5.8 mph - N/A   Unknown